Regional Weather Roundup
Issued by NWS

Home | Current Version | Previous Version | Text Only | Print | Product List | Glossary Off
Versions: 1 2 3 4 5 6 7 8 9 10 11 12 13 14 15 16 17 18 19 20 21 22 23 24 25 26 27 28 29 30 31 32 33 34 35 36 37 38 39 40 41 42 43 44 45 46 47 48 49 50

000
ASUS43 KLMK 191702
RWRKY
KENTUCKY REGIONAL WEATHER ROUNDUP
NATIONAL WEATHER SERVICE LOUISVILLE KY
1200 PM EST THU JAN 19 2017

NOTE "FAIR" INDICATES FEW OR NO CLOUDS BELOW 12,000 FEET
WITH NO SIGNIFICANT WEATHER AND/OR OBSTRUCTIONS TO VISIBILITY.

KYZ001>023-026-027-061>063-070>075-191800-
WESTERN AND SOUTH CENTRAL KENTUCKY

CITY           SKY/WX    TMP DP  RH WIND       PRES   REMARKS
PADUCAH        CLOUDY    51  48  89 SE14      29.86F
HENDERSON      CLOUDY    46  41  81 E7        29.92F
OWENSBORO      CLOUDY    49  44  83 E8        29.94F
HOPKINSVILLE   CLOUDY    52  52 100 SE9       29.92F
BOWLING GREEN  CLOUDY    51  49  92 E8        29.97F
GLASGOW        NOT AVBL
$$

KYZ024-025-028>034-038-045-046-053-191800-
NORTH CENTRAL KENTUCKY

CITY           SKY/WX    TMP DP  RH WIND       PRES   REMARKS
LOUISVILLE/SDF CLOUDY    52  39  61 SE7       30.00S
LOUISVILLE/LOU CLOUDY    52  39  61 S6        30.02R
FORT KNOX      CLOUDY    49  40  68 SE6       29.98S
$$

KYZ035>037-039>044-047>052-055>060-089>105-191800-
NORTHEAST KENTUCKY

CITY           SKY/WX    TMP DP  RH WIND       PRES   REMARKS
LEXINGTON      CLOUDY    52  37  56 SE12G18   30.02F
COVINGTON      CLOUDY    45  39  79 E7        30.00F
FRANKFORT      PTSUNNY   52  38  58 SE8       30.01F
$$

KYZ054-064>069-076>088-106>120-191800-
SOUTHEAST KENTUCKY

CITY           SKY/WX    TMP DP  RH WIND       PRES   REMARKS
JACKSON        CLOUDY    48  38  68 E3        30.02F
LONDON         CLOUDY    50  39  66 CALM      30.03F
SOMERSET       NOT AVBL
MIDDLESBORO    CLOUDY    53  42  65 CALM      30.05F
MONTICELLO     LGT RAIN  51  44  77 E3        30.04S
$$




USA.gov is the U.S. government's official web portal to all federal, state and local government web resources and services.